TimeCDT,TemperatureF,Dew PointF,Humidity,Sea Level PressureIn,VisibilityMPH,Wind Direction,Wind SpeedMPH,Gust SpeedMPH,PrecipitationIn,Events,Conditions,WindDirDegrees,DateUTC
12:52 AM,25.0,21.0,85,30.12,10.0,SSE,15.0,-,0.00,,Overcast,150,2013-03-17 05:52:00
1:52 AM,25.0,21.0,85,30.08,4.0,SSE,15.0,-,0.00,Snow,Light Snow,150,2013-03-17 06:52:00
2:52 AM,26.1,19.9,78,30.05,10.0,SE,12.7,-,0.00,,Overcast,140,2013-03-17 07:52:00
3:52 AM,25.0,19.9,81,30.03,10.0,SE,11.5,-,N/A,,Overcast,130,2013-03-17 08:52:00
4:11 AM,24.8,19.4,80,29.93,10.0,SE,10.4,-,N/A,,Overcast,130,2013-03-17 09:11:00
4:52 AM,25.0,19.9,81,30.01,10.0,SE,12.7,-,N/A,,Overcast,140,2013-03-17 09:52:00
5:52 AM,25.0,21.0,85,29.99,10.0,SSE,13.8,-,N/A,,Overcast,150,2013-03-17 10:52:00
6:52 AM,25.0,21.0,85,29.97,10.0,SSE,13.8,-,N/A,,Overcast,150,2013-03-17 11:52:00
7:08 AM,26.6,21.2,80,29.87,10.0,SSE,17.3,-,N/A,,Overcast,150,2013-03-17 12:08:00
7:27 AM,26.6,21.2,80,29.86,10.0,SSE,15.0,-,N/A,,Overcast,160,2013-03-17 12:27:00
7:52 AM,26.1,21.0,81,29.94,10.0,SSE,15.0,-,N/A,,Overcast,150,2013-03-17 12:52:00
8:47 AM,26.6,21.2,80,29.82,10.0,SSE,20.7,27.6,N/A,,Overcast,150,2013-03-17 13:47:00
8:52 AM,26.1,21.9,84,29.91,10.0,SSE,20.7,27.6,N/A,,Overcast,160,2013-03-17 13:52:00
9:52 AM,27.0,23.0,85,29.87,10.0,SSE,24.2,32.2,N/A,,Overcast,160,2013-03-17 14:52:00
10:52 AM,28.0,24.1,85,29.84,10.0,South,20.7,29.9,N/A,,Overcast,170,2013-03-17 15:52:00
11:52 AM,30.0,26.1,85,29.79,7.0,SSE,25.3,31.1,N/A,,Overcast,160,2013-03-17 16:52:00
12:11 PM,30.2,26.6,86,29.71,7.0,South,23.0,33.4,N/A,,Overcast,170,2013-03-17 17:11:00
12:52 PM,30.9,27.0,85,29.74,7.0,South,27.6,34.5,N/A,,Overcast,170,2013-03-17 17:52:00
12:59 PM,30.2,28.4,93,29.65,7.0,South,25.3,34.5,N/A,,Overcast,170,2013-03-17 17:59:00
1:52 PM,33.1,28.9,85,29.71,9.0,South,21.9,36.8,N/A,,Overcast,190,2013-03-17 18:52:00
2:52 PM,34.0,30.0,85,29.68,10.0,South,26.5,-,0.01,,Overcast,190,2013-03-17 19:52:00
3:52 PM,36.0,30.9,82,29.61,10.0,South,23.0,32.2,N/A,,Overcast,180,2013-03-17 20:52:00
4:52 PM,37.9,30.9,76,29.58,10.0,South,21.9,31.1,N/A,,Overcast,180,2013-03-17 21:52:00
5:44 PM,39.2,32.0,75,29.50,10.0,South,24.2,29.9,N/A,,Overcast,190,2013-03-17 22:44:00
5:52 PM,39.9,32.0,73,29.57,10.0,SSW,23.0,33.4,N/A,,Mostly Cloudy,200,2013-03-17 22:52:00
6:52 PM,39.9,32.0,73,29.56,10.0,SSW,24.2,31.1,N/A,,Mostly Cloudy,200,2013-03-17 23:52:00
7:52 PM,37.9,30.9,76,29.53,10.0,South,24.2,34.5,N/A,,Overcast,180,2013-03-18 00:52:00
8:52 PM,39.0,32.0,76,29.62,10.0,West,11.5,-,N/A,,Mostly Cloudy,280,2013-03-18 01:52:00
9:10 PM,37.4,33.8,87,29.59,5.0,NNW,16.1,-,0.00,Rain,Light Rain,340,2013-03-18 02:10:00
9:52 PM,34.0,30.0,85,29.70,9.0,NW,23.0,35.7,0.01,,Overcast,310,2013-03-18 02:52:00
10:17 PM,33.8,26.6,75,29.64,10.0,NW,25.3,34.5,N/A,,Mostly Cloudy,310,2013-03-18 03:17:00
10:52 PM,32.0,26.1,79,29.73,10.0,NW,20.7,32.2,N/A,,Scattered Clouds,310,2013-03-18 03:52:00
11:52 PM,33.1,23.0,66,29.75,10.0,NW,27.6,42.6,0.00,,Mostly Cloudy,310,2013-03-18 04:52:00